Weather History for Sioux Falls, SD

Change the Weather History Date:

Sunday, January 20, 2013

  Actual Average Record
Temperature  
Mean Temperature 4 °F 17 °F  
Max Temperature 10 °F 26 °F 57 °F (1944)
Min Temperature -2 °F 7 °F -24 °F (1954)
Degree Days  
Heating Degree Days 61 48  
Month to date heating degree days 905 978  
Since 1 July heating degree days 3845 4111  
Cooling Degree Days 0 0  
Month to date cooling degree days 0 0  
Year to date cooling degree days 0 0  
Moisture  
Dew Point 0 °F    
Average Humidity 77    
Maximum Humidity 88    
Minimum Humidity 65    
Precipitation  
Precipitation 0.09 in 0.02 in 0.49 in (1937)
Month to date precipitation 0.20 0.36  
Year to date precipitation 0.20 0.36  
Snow  
Snow 1.90 in 0.20 in 5.30 in (1998)
Month to date snowfall 2.0 4.9  
Since 1 July snowfall 15.8 21.8  
Snow Depth T in    
Sea Level Pressure  
Sea Level Pressure 30.42 in    
Wind  
Wind Speed 9 mph (NW)    
Max Wind Speed 23 mph    
Max Gust Speed 30 mph    
Visibility 7 miles    
Events Fog , Snow    
T = Trace of Precipitation, MM = Missing Value Source: NWS Daily Summary

Daily Weather History Graph

Daily Weather History Graph

Search for Another Location

Airport:

Trip Planner

Search our weather history database for the weather conditions in past years. The results will help you decide how hot, cold, wet, or windy it might be!

Date:

Astronomy

Jan. 20, 2013 Rise Set
Actual Time 7:53 AM CST 5:22 PM CST
Civil Twilight 7:22 AM CST 5:54 PM CST
Nautical Twilight 6:47 AM CST 6:29 PM CST
Astronomical Twilight 6:13 AM CST 7:03 PM CST
Moon 12:25 PM CST (1/20) 2:26 AM CST (1/20)
Length of Visible Light 10h 31m
Length of Day
9h 28m
Waxing Gibbous, 66% of the Moon is Illuminated
Jan 20
Waxing Gibbous
Jan 26
Full
Feb 3
Last Quarter
Feb 10
New
Feb 17
First Quarter

Hourly Weather History & Observations

Time (CST) Temp. Windchill Dew Point Humidity Pressure Visibility Wind Dir Wind Speed Gust Speed Precip Events Conditions
12:56 AM 6.1 °F -6.8 °F -2.0 °F 69% 30.40 in 10.0 mi NNW 8.1 mph - N/A   Clear
1:56 AM 5.0 °F -8.1 °F -2.9 °F 70% 30.40 in 10.0 mi NNW 8.1 mph - N/A   Partly Cloudy
2:56 AM 5.0 °F -8.1 °F -2.0 °F 73% 30.41 in 10.0 mi NNW 8.1 mph - N/A   Scattered Clouds
3:56 AM 5.0 °F -4.1 °F -2.0 °F 73% 30.40 in 10.0 mi North 4.6 mph - N/A   Overcast
4:56 AM 5.0 °F -2.1 °F -2.9 °F 70% 30.38 in 10.0 mi North 3.5 mph - N/A   Overcast
5:56 AM 6.1 °F -5.6 °F -2.0 °F 69% 30.43 in 9.0 mi NW 6.9 mph - 0.00 in Snow Light Snow
6:56 AM 6.1 °F -6.8 °F -0.0 °F 76% 30.43 in 3.0 mi NW 8.1 mph - 0.00 in Snow Light Snow
6:58 AM 6.8 °F -3.5 °F -0.4 °F 72% 30.33 in 2.5 mi NW 5.8 mph - 0.00 in Snow Light Snow
7:14 AM 6.8 °F - 1.4 °F 79% 30.33 in 1.8 mi Calm Calm - 0.00 in Snow Light Snow
7:56 AM 6.1 °F - 1.9 °F 83% 30.43 in 1.5 mi Calm Calm - 0.02 in Snow Light Snow
8:08 AM 6.8 °F - 1.4 °F 79% 30.33 in 1.0 mi Calm Calm - 0.00 in Snow Light Snow
8:17 AM 6.8 °F - 1.4 °F 79% 30.33 in 0.8 mi Calm Calm - 0.00 in Snow Light Snow
8:56 AM 6.1 °F - 3.0 °F 87% 30.44 in 0.8 mi Calm Calm - 0.02 in Snow Light Snow
9:11 AM 6.8 °F -0.1 °F 3.2 °F 85% 30.35 in 0.8 mi North 3.5 mph - 0.01 in Snow Light Snow
9:25 AM 6.8 °F -6.9 °F 3.2 °F 85% 30.38 in 0.5 mi NW 9.2 mph - 0.02 in Fog , Snow Snow
9:56 AM 7.0 °F -4.5 °F 3.0 °F 84% 30.50 in 0.5 mi NW 6.9 mph - 0.04 in Fog , Snow Snow
10:18 AM 6.8 °F -6.9 °F 3.2 °F 85% 30.40 in 0.8 mi NW 9.2 mph - 0.00 in Snow Light Snow
10:46 AM 6.8 °F -3.5 °F 3.2 °F 85% 30.41 in 2.0 mi NW 5.8 mph - 0.01 in Snow Light Snow
10:56 AM 7.0 °F -6.6 °F 1.9 °F 80% 30.51 in 2.0 mi NW 9.2 mph - 0.01 in Snow Light Snow
11:06 AM 8.6 °F -4.7 °F 1.4 °F 73% 30.41 in 4.0 mi NW 9.2 mph - 0.00 in Snow Light Snow
11:56 AM 8.1 °F -6.2 °F 3.0 °F 80% 30.51 in 8.0 mi NW 10.4 mph - 0.00 in   Overcast
12:56 PM 8.1 °F -7.7 °F 1.0 °F 73% 30.49 in 10.0 mi NW 12.7 mph - N/A   Mostly Cloudy
1:56 PM 10.0 °F -5.9 °F 1.9 °F 70% 30.47 in 10.0 mi WNW 13.8 mph - N/A   Mostly Cloudy
2:56 PM 9.0 °F -7.9 °F 1.9 °F 73% 30.46 in 10.0 mi WNW 15.0 mph - N/A   Partly Cloudy
3:27 PM 8.6 °F -8.9 °F 1.4 °F 73% 30.35 in 10.0 mi NW 16.1 mph - N/A   Mostly Cloudy
3:56 PM 8.1 °F -4.3 °F 1.9 °F 76% 30.45 in 10.0 mi WNW 8.1 mph - N/A   Mostly Cloudy
4:08 PM 8.6 °F -4.7 °F 1.4 °F 73% 30.34 in 10.0 mi WNW 9.2 mph - N/A   Scattered Clouds
4:56 PM 9.0 °F -4.2 °F 3.9 °F 80% 30.44 in 10.0 mi WNW 9.2 mph - N/A   Mostly Cloudy
5:02 PM 8.6 °F -3.7 °F 3.2 °F 79% 30.34 in 10.0 mi WNW 8.1 mph - N/A   Overcast
5:17 PM 10.4 °F -6.6 °F 3.2 °F 73% 30.33 in 7.0 mi NW 16.1 mph 23.0 mph 0.00 in   Overcast
5:56 PM 8.1 °F -9.0 °F 1.0 °F 73% 30.45 in 10.0 mi NW 15.0 mph - 0.00 in   Mostly Cloudy
6:56 PM 3.0 °F -9.3 °F -2.0 °F 80% 30.46 in 10.0 mi NW 6.9 mph - N/A   Scattered Clouds
7:56 PM 1.9 °F -10.6 °F -2.0 °F 83% 30.46 in 10.0 mi West 6.9 mph - N/A   Clear
8:56 PM -0.0 °F -13.0 °F -6.0 °F 76% 30.46 in 10.0 mi WNW 6.9 mph - N/A   Partly Cloudy
9:56 PM -0.9 °F -14.1 °F -8.0 °F 72% 30.46 in 10.0 mi WNW 6.9 mph - N/A   Clear
10:56 PM -0.9 °F -19.1 °F -9.0 °F 69% 30.48 in 10.0 mi NW 12.7 mph - N/A   Clear
11:07 PM -0.4 °F -22.3 °F -9.4 °F 66% 30.36 in 10.0 mi NW 19.6 mph 24.2 mph N/A   Mostly Cloudy
11:56 PM -0.9 °F -21.2 °F -9.0 °F 69% 30.48 in 9.0 mi NW 16.1 mph 25.3 mph 0.00 in Snow Light Snow